Flag for U.S.A. Weather past 2 weeks in Terre Haute, Indiana, U.S.A.

Now
33 °F

Fog.


Feels Like: 28 °F
Forecast: 32 / 40 °F
Wind: 6 mph from East

Location: Terre Haute International Airport - Hulman Field

Current Time: Feb 1, 2015 at 1:44:30 AM

Latest Report: Feb 1, 2015 at 12:53 AM


Visibility: 6 mi

Pressure: 30.16 "Hg

Humidity: 88%

Dew point: 30 °F

Location of Terre HauteLocation

Historic Weather in Terre Haute — Graph

°F

Terre Haute temperature yesterday

Maximum temperature yesterday: 40 °F (at 2:53 PM)
Minimum temperature yesterday: 20 °F (at 2:53 AM)
Average temperature yesterday: 30 °F

Past Weeks' High & Low Weather Summary

 TemperatureHumidityPressure
High50 °F (Jan 17, 1:53 PM)96% (Jan 27, 4:53 AM)30.54 "Hg (Jan 27, 4:53 AM)
Low17 °F (Jan 28, 5:53 AM)42% (Jan 30, 3:53 PM)29.61 "Hg (Jan 25, 2:53 PM)
Average34 °F77%30.07 "Hg
* Reported Jan 17 12:53 AM — Feb 1 12:53 AM, Terre Haute, Weather by CustomWeather, © 2014

Note: Actual official high and low records may vary slightly from our data, if they occured in-between our weather recording intervals... More about our weather records

Advertising

Terre Haute weather history for previous 24 hours

 ConditionsComfort  
Time TempWeatherWind HumidityBarometerVisibility
12:53 AM
Feb 1
33 °FFog.6 mph88%30.16 "Hg6 mi
11:53 PM
Jan 31
33 °FFog.5 mph92%30.20 "Hg5 mi
10:53 PM33 °FLight rain. Fog.5 mph92%30.22 "Hg5 mi
9:53 PM33 °FLight rain. Fog.6 mph92%30.23 "Hg4 mi
8:53 PM33 °FLight rain. Fog.7 mph88%30.25 "Hg5 mi
7:53 PM34 °FLight rain. Overcast.5 mph85%30.27 "Hg7 mi
6:53 PM35 °FSleet. Overcast.5 mph78%30.29 "Hg9 mi
5:53 PM36 °FOvercast.5 mph75%30.27 "Hg10 mi
4:53 PM38 °FMostly cloudy.6 mph63%30.28 "Hg10 mi
3:53 PM39 °FBroken clouds.12 mph57%30.28 "Hg10 mi
2:53 PM40 °FPassing clouds.9 mph55%30.29 "Hg10 mi
1:53 PM39 °FSunny.9 mph55%30.31 "Hg10 mi
12:53 PM38 °FSunny.12 mph58%30.34 "Hg10 mi
11:53 AM35 °FSunny.10 mph67%30.36 "Hg10 mi
10:53 AM33 °FSunny.8 mph70%30.37 "Hg10 mi
9:53 AM29 °FSunny.7 mph75%30.38 "Hg10 mi
8:53 AM25 °FSunny.5 mph78%30.38 "Hg10 mi
7:53 AM21 °FClear.5 mph85%30.38 "Hg10 mi
6:53 AM21 °FClear.No wind85%30.38 "Hg10 mi
5:53 AM21 °FClear.No wind81%30.37 "Hg10 mi
4:53 AM20 °FClear.No wind82%30.37 "Hg10 mi
3:53 AM20 °FClear.No wind85%30.40 "Hg10 mi
2:53 AM20 °FClear.No wind85%30.42 "Hg10 mi
1:53 AM21 °FClear.No wind81%30.42 "Hg10 mi
Weather by CustomWeather, © 2014

See weather overviewHow to use our weather pages